Tracking 29892 objects as of 21-Nov-2024
HD Live streaming from Space Station
objects crossing your sky now

COSMOS 2090

Track COSMOS 2090 now!
10-day predictions
COSMOS 2090 is classified as:


NORAD ID: 20735
Int'l Code: 1990-070A
Perigee: 1,397.8 km
Apogee: 1,418.4 km
Inclination: 82.6 °
Period: 113.8 minutes
Semi major axis: 7779 km
RCS: 1.115 m2 (large)
Launch date: August 8, 1990
Source: Commonwealth of Independent States (former USSR) (CIS)
Launch site: PLESETSK MISSILE AND SPACE COMPLEX (PKMTR)
Your satellite tracking list
Your tracking list is empty




NASA's NSSDC Master Catalog

Two Line Element Set (TLE):
1 20735U 90070A   24325.86176824  .00000044  00000-0  17870-3 0  9995
2 20735  82.5640 280.6651 0013236 293.3906  93.8603 12.65341718583686
Source of the keplerian elements: AFSPC